Location: Boncourt
(49.6160°N, 3.9448°E)
Time: 14:32:19
(UTC+00:00)

Cosmos 2369 Rocket - Visible Passes

Search period start: 01 October 2023 00:00
Search period end: 11 October 2023 00:00
Orbit: 830 x 851 km, 71.0° (Epoch: 01 October)

Date Brightness Start Highest point End Pass type
(mag) Time Alt. Az. Time Alt. Az. Time Alt. Az.
01 Oct 4.2 18:02:51 10° N 18:05:27 13° NNE 18:08:03 10° NE visible
01 Oct 2.6 19:45:44 10° NNW 19:51:04 43° NE 19:51:15 43° ENE visible
01 Oct 3.9 21:29:55 10° NW 21:33:01 29° WNW 21:33:01 29° WNW visible
02 Oct 4.1 17:47:26 10° N 17:49:54 13° NNE 17:52:20 10° NE visible
02 Oct 2.7 19:30:15 10° NNW 19:35:33 41° NE 19:36:11 39° ENE visible
02 Oct 3.6 21:14:23 10° NW 21:17:58 33° WNW 21:17:58 33° WNW visible
03 Oct 2.7 19:14:47 10° NNW 19:20:02 39° NE 19:21:10 35° ENE visible
03 Oct 3.4 20:58:52 10° NW 21:02:58 38° WNW 21:02:58 38° WNW visible
04 Oct 2.8 18:59:18 10° NNW 19:04:31 37° NE 19:06:12 31° E visible
04 Oct 3.1 20:43:20 10° NW 20:47:59 43° W 20:47:59 43° W visible
05 Oct 2.9 18:43:51 10° NNW 18:49:00 36° NE 18:51:17 26° E visible
05 Oct 2.9 20:27:49 10° NW 20:33:04 47° WSW 20:33:04 47° WSW visible
06 Oct 2.9 18:28:22 10° NNW 18:33:28 34° NE 18:36:25 21° E visible
06 Oct 2.7 20:12:19 10° NW 20:17:42 50° WSW 20:18:12 48° SW visible
07 Oct 3.0 18:12:55 10° NNW 18:17:57 33° NE 18:21:37 17° ESE visible
07 Oct 2.7 19:56:48 10° NW 20:02:14 53° WSW 20:03:25 44° SSW visible
08 Oct 3.0 17:57:26 10° NNW 18:02:25 32° NE 18:06:55 12° ESE visible
08 Oct 2.7 19:41:17 10° NW 19:46:46 56° WSW 19:48:43 37° SSW visible
09 Oct 3.1 17:41:58 10° NNW 17:46:54 30° NE 17:51:49 10° ESE visible
09 Oct 2.6 19:25:46 10° NW 19:31:17 59° WSW 19:34:08 28° S visible
10 Oct 2.6 19:10:16 10° NW 19:15:48 62° WSW 19:19:40 20° S visible
